Olivia, MN

9:59 PM CDT on April 23, 2017 (GMT -0500)
Olivia Regional

Weather History for KOVL - October, 2012

Change the Weather History Date:

Monday, October 15, 2012

  Actual Average (KRWF) Record (KRWF)
Temperature  
Mean Temperature 49 °F -  
Max Temperature 68 °F 56 °F 88 °F (1958)
Min Temperature 30 °F 37 °F 23 °F (1952)
Degree Days  
Heating Degree Days 16    
Moisture  
Dew Point 34 °F    
Average Humidity 59    
Maximum Humidity 93    
Minimum Humidity 30    
Precipitation  
Precipitation 0.00 in - - ()
Sea Level Pressure  
Sea Level Pressure 29.85 in    
Wind  
Wind Speed 5 mph (South)    
Max Wind Speed 16 mph    
Max Gust Speed 21 mph    
Visibility 10 miles    
Events      
Averages and records for this station are not official NWS values.
T = Trace of Precipitation, MM = Missing Value Source: NWS Daily Summary

Daily Weather History Graph

Daily Weather History Graph

Search for Another Location

Airport or City:

Trip Planner

Search our weather history database for the weather conditions in past years. The results will help you decide how hot, cold, wet, or windy it might be!

Date:

Astronomy

Oct. 15, 2012 Rise Set
Actual Time 7:36 AM CDT 6:34 PM CDT
Civil Twilight 7:06 AM CDT 7:04 PM CDT
Nautical Twilight 6:32 AM CDT 7:37 PM CDT
Astronomical Twilight 5:58 AM CDT 8:11 PM CDT
Moon 7:50 AM CDT (10/15) 6:31 PM CDT (10/15)
Length of Visible Light 11h 57m
Length of Day
10h 58m
New Moon, 0% of the Moon is Illuminated
Oct 15
New Moon
Oct 21
First Quarter
Oct 29
Full
Nov 6
Last Quarter
Nov 13
New

Hourly Weather History & Observations

Time (CDT) Temp. Windchill Dew Point Humidity Pressure Visibility Wind Dir Wind Speed Gust Speed Precip Events Conditions
12:11 AM 39.2 °F 35.0 °F 32.0 °F 75% 29.92 in 10.0 mi WNW 5.8 mph - N/A   Clear
12:31 AM 39.2 °F 34.2 °F 32.0 °F 75% 29.92 in 10.0 mi WNW 6.9 mph - N/A   Clear
12:51 AM 39.2 °F 35.0 °F 32.0 °F 75% 29.92 in 10.0 mi WNW 5.8 mph - N/A   Clear
1:11 AM 37.4 °F 33.8 °F 32.0 °F 81% 29.93 in 10.0 mi NW 4.6 mph - N/A   Clear
1:31 AM 37.4 °F 34.9 °F 32.0 °F 81% 29.93 in 10.0 mi WNW 3.5 mph - N/A   Clear
1:51 AM 35.6 °F 32.8 °F 30.2 °F 81% 29.93 in 10.0 mi WNW 3.5 mph - N/A   Clear
2:11 AM 35.6 °F 31.7 °F 32.0 °F 87% 29.93 in 10.0 mi WNW 4.6 mph - N/A   Clear
2:31 AM 35.6 °F - 30.2 °F 81% 29.93 in 10.0 mi Calm Calm - N/A   Clear
2:51 AM 33.8 °F 29.6 °F 30.2 °F 87% 29.93 in 10.0 mi WNW 4.6 mph - N/A   Clear
3:11 AM 33.8 °F 30.8 °F 30.2 °F 87% 29.93 in 10.0 mi WNW 3.5 mph - N/A   Clear
3:31 AM 33.8 °F - 30.2 °F 87% 29.93 in 10.0 mi Calm Calm - N/A   Clear
3:51 AM 33.8 °F - 30.2 °F 87% 29.92 in 10.0 mi Calm Calm - N/A   Clear
4:11 AM 32.0 °F 28.7 °F 28.4 °F 87% 29.92 in 10.0 mi West 3.5 mph - N/A   Clear
4:31 AM 33.8 °F - 32.0 °F 93% 29.92 in 10.0 mi Calm Calm - N/A   Clear
4:51 AM 33.8 °F - 32.0 °F 93% 29.92 in 10.0 mi Calm Calm - N/A   Clear
5:11 AM 30.2 °F - 26.6 °F 86% 29.92 in 10.0 mi Calm Calm - N/A   Clear
5:51 AM 32.0 °F - 30.2 °F 93% 29.92 in 10.0 mi Calm Calm - N/A   Clear
6:11 AM 32.0 °F 26.4 °F 28.4 °F 87% 29.93 in 10.0 mi West 5.8 mph - N/A   Clear
6:31 AM 30.2 °F 25.4 °F 28.4 °F 93% 29.93 in 10.0 mi West 4.6 mph - N/A   Clear
6:51 AM 32.0 °F - 28.4 °F 87% 29.93 in 10.0 mi Calm Calm - N/A   Clear
7:10 AM 32.0 °F - 30.2 °F 93% 29.93 in 10.0 mi Calm Calm - N/A   Clear
7:31 AM 32.0 °F - 30.2 °F 93% 29.93 in 10.0 mi Calm Calm - N/A   Clear
7:51 AM 32.0 °F - 30.2 °F 93% 29.93 in 10.0 mi Calm Calm - N/A   Clear
8:11 AM 32.0 °F - 28.4 °F 87% 29.94 in 5.0 mi Calm Calm - N/A   Clear
8:31 AM 32.0 °F - 30.2 °F 93% 29.95 in 5.0 mi Calm Calm - N/A   Clear
8:51 AM 33.8 °F - 32.0 °F 93% 29.95 in 10.0 mi Calm Calm - N/A   Clear
9:11 AM 37.4 °F - 32.0 °F 81% 29.95 in 10.0 mi Calm Calm - N/A   Clear
9:31 AM 41.0 °F - 32.0 °F 70% 29.94 in 7.0 mi Calm Calm - N/A   Clear
9:51 AM 42.8 °F - 33.8 °F 70% 29.95 in 10.0 mi Calm Calm - N/A   Clear
10:11 AM 48.2 °F - 35.6 °F 62% 29.94 in 10.0 mi Calm Calm - N/A   Clear
10:51 AM 51.8 °F - 35.6 °F 54% 29.94 in 10.0 mi South 5.8 mph - N/A   Clear
11:11 AM 53.6 °F - 37.4 °F 54% 29.93 in 10.0 mi SSE 3.5 mph - N/A   Clear
11:31 AM 55.4 °F - 35.6 °F 47% 29.93 in 10.0 mi South 5.8 mph - N/A   Clear
11:51 AM 57.2 °F - 37.4 °F 48% 29.92 in 10.0 mi SSW 4.6 mph - N/A   Clear
12:11 PM 57.2 °F - 35.6 °F 44% 29.92 in 10.0 mi South 5.8 mph - N/A   Clear
12:31 PM 59.0 °F - 35.6 °F 42% 29.91 in 10.0 mi South 6.9 mph - N/A   Clear
12:51 PM 59.0 °F - 35.6 °F 42% 29.90 in 10.0 mi SSE 8.1 mph - N/A   Clear
1:11 PM 60.8 °F - 35.6 °F 39% 29.88 in 10.0 mi SSE 8.1 mph - N/A   Clear
1:31 PM 62.6 °F - 35.6 °F 37% 29.87 in 10.0 mi South 9.2 mph - N/A   Clear
1:51 PM 62.6 °F - 35.6 °F 37% 29.86 in 10.0 mi SSE 9.2 mph - N/A   Clear
2:11 PM 62.6 °F - 35.6 °F 37% 29.85 in 10.0 mi South 9.2 mph - N/A   Clear
2:31 PM 62.6 °F - 33.8 °F 34% 29.84 in 10.0 mi SSE 9.2 mph 16.1 mph N/A   Clear
2:51 PM 64.4 °F - 35.6 °F 34% 29.83 in 10.0 mi South 9.2 mph 16.1 mph N/A   Clear
3:11 PM 64.4 °F - 33.8 °F 32% 29.83 in 10.0 mi SSE 10.4 mph 16.1 mph N/A   Clear
3:31 PM 64.4 °F - 33.8 °F 32% 29.82 in 10.0 mi South 9.2 mph - N/A   Clear
3:51 PM 64.4 °F - 33.8 °F 32% 29.81 in 10.0 mi South 11.5 mph 17.3 mph N/A   Clear
4:11 PM 68.0 °F - 35.6 °F 30% 29.81 in 10.0 mi South 12.7 mph - N/A   Clear
4:31 PM 68.0 °F - 35.6 °F 30% 29.80 in 10.0 mi South 10.4 mph - N/A   Clear
4:51 PM 68.0 °F - 35.6 °F 30% 29.79 in 10.0 mi South 11.5 mph - N/A   Clear
5:11 PM 68.0 °F - 35.6 °F 30% 29.79 in 10.0 mi South 11.5 mph - N/A   Clear
5:31 PM 64.4 °F - 33.8 °F 32% 29.77 in 10.0 mi SSE 10.4 mph - N/A   Clear
5:51 PM 64.4 °F - 35.6 °F 34% 29.77 in 10.0 mi South 8.1 mph - N/A   Clear
6:11 PM 64.4 °F - 35.6 °F 34% 29.77 in 10.0 mi SSE 8.1 mph - N/A   Clear
6:31 PM 62.6 °F - 35.6 °F 37% 29.76 in 10.0 mi SSE 11.5 mph - N/A   Clear
6:51 PM 62.6 °F - 33.8 °F 34% 29.75 in 10.0 mi SSE 10.4 mph - N/A   Clear
7:11 PM 62.6 °F - 33.8 °F 34% 29.74 in 10.0 mi SSE 10.4 mph - N/A   Clear
7:31 PM 60.8 °F - 33.8 °F 36% 29.74 in 10.0 mi SSE 8.1 mph - N/A   Clear
7:50 PM 59.0 °F - 33.8 °F 39% 29.74 in 10.0 mi SE 8.1 mph - N/A   Clear
8:11 PM 59.0 °F - 35.6 °F 42% 29.73 in 10.0 mi SSE 10.4 mph - N/A   Clear
8:31 PM 59.0 °F - 35.6 °F 42% 29.73 in 10.0 mi SSE 10.4 mph - N/A   Clear
8:51 PM 59.0 °F - 35.6 °F 42% 29.72 in 10.0 mi SSE 11.5 mph - N/A   Clear
9:11 PM 59.0 °F - 37.4 °F 45% 29.72 in 10.0 mi SSE 12.7 mph - N/A   Clear
9:31 PM 59.0 °F - 37.4 °F 45% 29.71 in 10.0 mi SSE 15.0 mph - N/A   Clear
9:51 PM 59.0 °F - 37.4 °F 45% 29.71 in 10.0 mi SSE 15.0 mph 20.7 mph N/A   Clear
10:11 PM 59.0 °F - 37.4 °F 45% 29.70 in 10.0 mi SSE 15.0 mph - N/A   Clear
10:31 PM 57.2 °F - 37.4 °F 48% 29.69 in 10.0 mi SSE 16.1 mph 19.6 mph N/A   Clear
10:51 PM 57.2 °F - 37.4 °F 48% 29.68 in 10.0 mi SSE 15.0 mph - N/A   Clear
11:11 PM 57.2 °F - 39.2 °F 51% 29.68 in 10.0 mi SSE 13.8 mph 20.7 mph N/A   Clear
11:31 PM 57.2 °F - 39.2 °F 51% 29.66 in 10.0 mi South 15.0 mph 19.6 mph N/A   Clear
11:51 PM 57.2 °F - 39.2 °F 51% 29.66 in 10.0 mi South 13.8 mph 19.6 mph N/A   Clear